[[{"header":{"parameterUnit":"m.s-1","parameterCategory":1,"la1":30.2991,"la2":30.254,"lo1":-89.0895,"lo2":-89.0444,"dx":0.0017,"dy":0.0017,"nx":28,"ny":28,"refTime":"2022-11-15T09:00:00:Z","depth":0,"parameterNumber":2,"parameterNumberName":"U-component_of_WINDS"},"data":[0,0,0,0,0,0,0,0,0,0,0,0,0,0,0,0,0,0,0,0,0,0,0,0,0,0,0,0,0,0,0,0,0,0,0,0,0,0,0,0,0,0,0,0,0,0,0,0,0,0,0,0,0,0,0,0,0,0,0.1142,0.1142,0,0.1155,0.1155,0.1155,0.1183,0.1184,0.1184,0.1185,0.1197,0.1197,0.1197,0,0,0,0,0,0,0,0,0,0,0,0,0,0.1142,0.1142,0.1142,0.1142,0.1142,0.1155,0.1155,0.1155,0.1183,0.1184,0.1185,0.1185,0.1197,0.1197,0.1197,0,0,0,0,0,0,0,0,0,0,0,0,0,0.1147,0.1142,0.1142,0.1158,0.116,0.1155,0.1155,0.1155,0.1183,0.1184,0.1185,0.1186,0.1197,0.1197,0.1197,0.1177,0,0,0.1196,0.1196,0,0,0,0,0,0,0,0,0.1147,0.1147,0.1155,0.1157,0.1159,0.1168,0.116,0.1163,0.1183,0.1174,0.1185,0.1186,0.1187,0.1187,0.1188,0.1178,0.1178,0.1196,0.1195,0.1195,0.1195,0,0,0,0,0,0,0,0.1147,0.1147,0.1147,0.1156,0.1157,0.1164,0.1166,0.116,0.1175,0.1175,0.1177,0.1178,0.1188,0.1188,0.1188,0.1179,0.1196,0.1195,0.1195,0.1195,0.1155,0.1154,0,0,0,0,0,0,0.1144,0.1146,0.1147,0.1148,0.1155,0.1164,0.1166,0.1164,0.1176,0.1178,0.1177,0.1179,0.1188,0.1189,0.1189,0.1168,0.1195,0.1195,0.1195,0.1156,0.1154,0.1153,0,0,0,0,0,0,0.1144,0.1144,0.1146,0.1148,0.1148,0.1163,0.1161,0.1164,0.1164,0.1177,0.118,0.1175,0.1189,0.1189,0.118,0.1168,0.1195,0.1195,0.1157,0.1155,0.1154,0.1124,0,0,0,0,0,0,0.1144,0.1144,0.1136,0.1147,0.1148,0.1137,0.116,0.1164,0.1164,0.1167,0.1176,0.1178,0.119,0.1181,0.118,0.1168,0.1194,0.1158,0.1156,0.1154,0.1126,0.1122,0.1118,0,0,0,0,0,0.1144,0.1127,0.1136,0.1136,0.1139,0.1136,0.1137,0.1151,0.1163,0.1156,0.1164,0.1178,0.117,0.1179,0.1179,0.1167,0.1158,0.1156,0.1155,0.1128,0.1123,0.1118,0,0,0,0,0,0,0.1114,0.1129,0.1138,0.1125,0.1129,0.1141,0.1132,0.1145,0.1146,0.1148,0.1165,0.1167,0.1156,0.1161,0.1171,0.115,0.1166,0.1164,0.1147,0.1142,0.1138,0.1137,0.1194,0,0,0,0,0,0.1105,0.1102,0.1115,0.1102,0.1104,0.1118,0.1117,0.1127,0.1132,0.1134,0.1142,0.1147,0.1145,0.1144,0.1143,0.1128,0.113,0.1119,0.1115,0.1112,0.111,0.1102,0.1098,0.1147,0.1147,0.1147,0,0,0.1088,0.1096,0.1093,0.1096,0.1101,0.1097,0.1119,0.1114,0.1111,0.1133,0.1125,0.1132,0.1138,0.1125,0.112,0.1129,0.1097,0.1109,0.1107,0.1106,0.11,0.1095,0.1091,0.1146,0.1146,0.1146,0,0,0.1055,0.106,0.105,0.1055,0.1062,0.1072,0.1069,0.108,0.1085,0.1077,0.1094,0.1091,0.1088,0.1092,0.1094,0.1064,0.1077,0.1063,0.1042,0.1035,0.1031,0.1028,0.1017,0.1013,0.1061,0.1061,0.1061,0,0.1033,0.1027,0.1043,0.1037,0.1038,0.106,0.105,0.1053,0.1059,0.106,0.107,0.1067,0.1073,0.1062,0.1055,0.1055,0.1053,0.1062,0.103,0.1027,0.1024,0.1014,0.101,0.1059,0.1059,0.106,0.106,0,0.1,0.0996,0.0987,0.0993,0.0994,0.0985,0.1,0.0999,0.101,0.1018,0.1011,0.1019,0.102,0.1019,0.1029,0.101,0.1015,0.1027,0.1045,0.1018,0.1009,0.1005,0.1057,0.1057,0.1058,0.1058,0,0,0.0947,0.0963,0.0959,0.0963,0.0973,0.097,0.0963,0.0966,0.0964,0.0968,0.0963,0.0961,0.0973,0.0975,0.0986,0.0979,0.0956,0.0993,0.0993,0.0986,0.0936,0.0926,0.0921,0.0964,0.0964,0.0963,0.0935,0,0.0916,0.0905,0.092,0.0906,0.0903,0.0924,0.0918,0.0923,0.0932,0.0931,0.094,0.0938,0.0954,0.0955,0.095,0.0959,0.0946,0.0962,0.096,0.096,0.0957,0.0916,0.0906,0.0879,0.0932,0.0931,0.0931,0,0.0877,0.088,0.0866,0.0878,0.0878,0.0872,0.0876,0.0874,0.0882,0.0888,0.0891,0.0904,0.0899,0.0916,0.0909,0.092,0.092,0.0925,0.0924,0.0924,0.0943,0.0915,0.0871,0.0866,0.0925,0.0926,0.0926,0,0.084,0.0841,0.0833,0.0835,0.0849,0.0844,0.085,0.0858,0.0859,0.0862,0.0863,0.0865,0.0867,0.0868,0.0883,0.0894,0.0874,0.0892,0.0879,0.0879,0.0874,0.0874,0.0828,0.0874,0.0874,0.0874,0.0875,0,0.0804,0.0794,0.0816,0.0811,0.0802,0.0819,0.0809,0.0817,0.0824,0.0821,0.0839,0.0836,0.0855,0.0854,0.0865,0.0858,0.0858,0.0864,0.0866,0.0862,0.0861,0.0862,0.0864,0.0873,0.0874,0.0874,0.0874,0,0.076,0.0774,0.0767,0.0781,0.0784,0.0777,0.0789,0.0785,0.0795,0.0791,0.0791,0.0807,0.0807,0.0821,0.0824,0.0831,0.0819,0.0826,0.0817,0.0819,0.0805,0.0806,0.0758,0.0753,0.0803,0.0802,0.0802,0,0.0736,0.0729,0.0743,0.0742,0.0747,0.0746,0.0747,0.0764,0.0765,0.0773,0.0768,0.077,0.0772,0.0771,0.0783,0.0785,0.0792,0.0775,0.0792,0.0788,0.0792,0.0792,0.0791,0.0771,0.077,0.077,0.0769,0,0.0691,0.0699,0.07,0.0703,0.0704,0.0708,0.0713,0.0711,0.0731,0.073,0.0731,0.0732,0.0736,0.0737,0.0742,0.0748,0.0762,0.0764,0.0761,0.0756,0.0751,0.0754,0.0807,0.0765,0.0765,0.0766,0.0766,0.0766,0.0656,0.0652,0.0661,0.0662,0.0667,0.0672,0.0669,0.0679,0.068,0.0684,0.0695,0.0693,0.0702,0.071,0.0715,0.0714,0.0723,0.0719,0.0718,0.0716,0.0714,0.0752,0.0715,0.0716,0.0716,0.0716,0.0716,0,0.0612,0.062,0.062,0.0627,0.0628,0.0642,0.0648,0.0648,0.0647,0.0653,0.0656,0.0656,0.0658,0.0671,0.0674,0.0671,0.0678,0.0672,0.0672,0.0673,0.0706,0.0708,0.0666,0.0666,0.0666,0.0666,0.0666,0.0666,0.059,0.0583,0.0592,0.0588,0.0596,0.0595,0.0598,0.0602,0.0608,0.0608,0.061,0.0618,0.0628,0.0632,0.0635,0.0638,0.0639,0.063,0.0636,0.0666,0.0671,0.0675,0.0677,0.063,0.063,0.0603,0.0603,0.0603]},{"header":{"parameterUnit":"m.s-1","parameterCategory":1,"la1":30.2991,"la2":30.254,"lo1":-89.0895,"lo2":-89.0444,"dx":0.0017,"dy":0.0017,"nx":28,"ny":28,"refTime":"2022-11-15T09:00:00:Z","depth":0,"parameterNumber":3,"parameterNumberName":"V-component_of_WINDS"},"data":[0,0,0,0,0,0,0,0,0,0,0,0,0,0,0,0,0,0,0,0,0,0,0,0,0,0,0,0,0,0,0,0,0,0,0,0,0,0,0,0,0,0,0,0,0,0,0,0,0,0,0,0,0,0,0,0,0,0,-6.6973,-6.6974,0,-6.7033,-6.7034,-6.7034,-6.6951,-6.6948,-6.6945,-6.6942,-6.7,-6.7004,-6.7008,0,0,0,0,0,0,0,0,0,0,0,0,0,-6.6781,-6.6785,-6.6973,-6.6974,-6.6974,-6.7033,-6.7034,-6.7035,-6.6951,-6.6948,-6.6944,-6.6941,-6.6998,-6.7003,-6.7009,0,0,0,0,0,0,0,0,0,0,0,0,0,-6.6855,-6.6786,-6.6973,-6.694,-6.6938,-6.7033,-6.7034,-6.7035,-6.6952,-6.6948,-6.6943,-6.6939,-6.6997,-6.7003,-6.7009,-6.7138,0,0,-6.7029,-6.7032,0,0,0,0,0,0,0,0,-6.6851,-6.6862,-6.6944,-6.6942,-6.694,-6.698,-6.6987,-6.7069,-6.6953,-6.6946,-6.6942,-6.6937,-6.6996,-6.7003,-6.7024,-6.7141,-6.7143,-6.703,-6.7033,-6.7036,-6.7038,0,0,0,0,0,0,0,-6.6846,-6.6859,-6.6997,-6.6945,-6.6943,-6.6921,-6.6926,-6.7002,-6.6996,-6.6947,-6.6941,-6.6949,-6.6994,-6.7018,-6.7024,-6.7144,-6.7029,-6.7035,-6.7039,-6.7042,-6.7369,-6.7374,0,0,0,0,0,0,-6.6845,-6.6855,-6.6995,-6.6998,-6.6884,-6.6928,-6.6934,-6.6972,-6.6995,-6.6994,-6.6953,-6.6945,-6.7009,-6.7017,-6.7026,-6.7178,-6.7036,-6.7042,-6.7046,-6.7364,-6.737,-6.7375,0,0,0,0,0,0,-6.6842,-6.6859,-6.6992,-6.6925,-6.6941,-6.6936,-6.6979,-6.6975,-6.6998,-6.6999,-6.6997,-6.6978,-6.7006,-6.7017,-6.7111,-6.7179,-6.7045,-6.7051,-6.7359,-6.7366,-6.7373,-6.7483,0,0,0,0,0,0,-6.6836,-6.6858,-6.6908,-6.6927,-6.6945,-6.7078,-6.6983,-6.6979,-6.701,-6.7,-6.7022,-6.7022,-6.7003,-6.7102,-6.7117,-6.7185,-6.7056,-6.7352,-6.7362,-6.737,-6.7474,-6.7493,-6.751,0,0,0,0,0,-6.683,-6.6936,-6.6911,-6.6928,-6.7007,-6.7082,-6.7092,-6.7069,-6.7016,-6.7065,-6.7066,-6.7021,-6.7169,-6.7112,-6.7129,-6.72,-6.7348,-6.7359,-6.737,-6.7465,-6.7489,-6.751,0,0,0,0,0,0,-6.6923,-6.6938,-6.691,-6.7026,-6.7054,-6.7068,-6.713,-6.7096,-6.7138,-6.7127,-6.7095,-6.7101,-6.7202,-6.721,-6.7146,-6.7325,-6.7249,-6.7264,-6.7316,-6.7339,-6.7357,-6.7353,-6.7061,0,0,0,0,0,-6.6958,-6.7019,-6.7027,-6.7129,-6.7144,-6.7135,-6.7166,-6.7147,-6.7173,-6.7184,-6.7191,-6.7218,-6.727,-6.7305,-6.7353,-6.7474,-6.7477,-6.7531,-6.7549,-6.7565,-6.7578,-6.7641,-6.7665,-6.7411,-6.7411,-6.7411,0,0,-6.7029,-6.7044,-6.7084,-6.7148,-6.7167,-6.7229,-6.7145,-6.7214,-6.726,-6.7194,-6.7284,-6.729,-6.7317,-6.7425,-6.7473,-6.7435,-6.7648,-6.7578,-6.7591,-6.7595,-6.7655,-6.7679,-6.77,-6.7418,-6.7417,-6.7416,0,0,-6.719,-6.7209,-6.7295,-6.7316,-6.7346,-6.7339,-6.736,-6.7379,-6.7381,-6.7471,-6.7423,-6.7475,-6.7566,-6.7587,-6.761,-6.7779,-6.7739,-6.7796,-6.7892,-6.7954,-6.7974,-6.7992,-6.8051,-6.8073,-6.7809,-6.7809,-6.7809,0,-6.7275,-6.7368,-6.7343,-6.7416,-6.7445,-6.7389,-6.7475,-6.7496,-6.754,-6.7561,-6.7518,-6.763,-6.7645,-6.7756,-6.7798,-6.7818,-6.784,-6.7793,-6.7973,-6.7991,-6.8007,-6.8063,-6.8086,-6.7815,-6.7815,-6.7814,-6.7813,0,-6.747,-6.7535,-6.76,-6.7646,-6.7682,-6.7761,-6.7746,-6.7786,-6.7762,-6.776,-6.7851,-6.7866,-6.7916,-6.7941,-6.7919,-6.805,-6.8025,-6.7979,-6.7902,-6.8038,-6.809,-6.8112,-6.7825,-6.7823,-6.7821,-6.7819,0,0,-6.7692,-6.7722,-6.7747,-6.7766,-6.7795,-6.7844,-6.792,-6.797,-6.8004,-6.8036,-6.8098,-6.8176,-6.8133,-6.8159,-6.8138,-6.8193,-6.8325,-6.814,-6.814,-6.8173,-6.8469,-6.8504,-6.8529,-6.8299,-6.8303,-6.8306,-6.8467,0,-6.7853,-6.7986,-6.7965,-6.8093,-6.8152,-6.81,-6.8166,-6.819,-6.8189,-6.8238,-6.8236,-6.8292,-6.8231,-6.8246,-6.8298,-6.8298,-6.8384,-6.8286,-6.8355,-6.8358,-6.835,-6.8557,-6.8594,-6.8744,-6.8487,-6.849,-6.8493,0,-6.8058,-6.8099,-6.8233,-6.8252,-6.8276,-6.8336,-6.838,-6.8428,-6.8454,-6.8449,-6.8478,-6.8447,-6.8521,-6.8444,-6.8545,-6.8479,-6.8505,-6.8509,-6.8515,-6.852,-6.8433,-6.8567,-6.8792,-6.8815,-6.8525,-6.8522,-6.852,0,-6.8206,-6.8294,-6.8386,-6.8404,-6.8429,-6.8472,-6.8484,-6.8506,-6.8537,-6.8574,-6.8594,-6.864,-6.8665,-6.87,-6.8681,-6.8627,-6.8785,-6.8706,-6.8782,-6.8783,-6.8818,-6.8816,-6.905,-6.8836,-6.8836,-6.8836,-6.8835,0,-6.8388,-6.8472,-6.8453,-6.8509,-6.8601,-6.8576,-6.8667,-6.8672,-6.8692,-6.8747,-6.8704,-6.8756,-6.8729,-6.8779,-6.8765,-6.885,-6.8862,-6.8859,-6.8854,-6.8863,-6.8863,-6.8879,-6.8868,-6.8841,-6.884,-6.8839,-6.8838,0,-6.8568,-6.8559,-6.8656,-6.8671,-6.8677,-6.8744,-6.8757,-6.8809,-6.8804,-6.8875,-6.889,-6.8883,-6.8939,-6.8925,-6.8986,-6.8976,-6.9084,-6.9066,-6.9076,-6.9071,-6.9148,-6.9141,-6.94,-6.9432,-6.9198,-6.9201,-6.9203,0,-6.8685,-6.8748,-6.8771,-6.8806,-6.8822,-6.8878,-6.891,-6.8886,-6.8921,-6.8955,-6.9002,-6.9055,-6.9096,-6.9189,-6.9188,-6.9235,-6.9217,-6.9305,-6.9224,-6.923,-6.9217,-6.9214,-6.922,-6.9321,-6.9324,-6.9326,-6.9327,0,-6.8892,-6.8884,-6.8933,-6.898,-6.9019,-6.9055,-6.9086,-6.9116,-6.9095,-6.9136,-6.9194,-6.9226,-6.9289,-6.9341,-6.9384,-6.9394,-6.9357,-6.9353,-6.9373,-6.9382,-6.9385,-6.9384,-6.9119,-6.9347,-6.9345,-6.9344,-6.9343,-6.9342,-6.9044,-6.9098,-6.9122,-6.9177,-6.9198,-6.9228,-6.9278,-6.928,-6.9328,-6.9379,-6.9361,-6.9428,-6.945,-6.9503,-6.9519,-6.9569,-6.9536,-6.9565,-6.9572,-6.958,-6.9589,-6.9378,-6.9577,-6.9576,-6.9576,-6.9575,-6.9575,0,-6.9248,-6.9262,-6.9312,-6.9358,-6.9401,-6.9364,-6.9396,-6.9434,-6.9493,-6.9518,-6.956,-6.9625,-6.9676,-6.968,-6.9727,-6.9766,-6.9751,-6.9779,-6.9776,-6.9779,-6.9617,-6.9594,-6.9791,-6.9791,-6.9791,-6.9791,-6.9791,-6.9791,-6.936,-6.9449,-6.9444,-6.9542,-6.9554,-6.9619,-6.9641,-6.9668,-6.9688,-6.9764,-6.9806,-6.9808,-6.9824,-6.9872,-6.9917,-6.9916,-6.9935,-6.997,-6.9964,-6.9812,-6.979,-6.977,-6.9749,-6.9975,-6.9975,-7.0121,-7.0123,-7.0124]}]]